Regional Weather Roundup
Issued by NWS Green Bay, WI

Home | Current Version | Previous Version | Text Only | Print | Product List | Glossary On
Versions: 1 2 3 4 5 6 7 8 9 10 11 12 13 14 15 16 17 18 19 20 21 22 23 24 25 26 27 28 29 30 31 32 33 34 35 36 37 38 39 40 41 42 43 44 45 46 47 48 49 50
000
ASUS43 KGRB 310559
RWRGRB

NORTH-CENTRAL AND NORTHEAST WISCONSIN REGIONAL WEATHER ROUNDUP
NATIONAL WEATHER SERVICE GREEN BAY WI
100 AM CDT FRI OCT 31 2014

WIZ005-009-010>012-018-019-310700-
NORTH CENTRAL WISCONSIN

CITY           SKY/WX    TMP DP  RH WIND       PRES   REMARKS
IRONWOOD       CLOUDY    30  27  86 N14G23    30.22R
MANITOWISH WTR NOT AVBL
ARBOR VITAE    NOT AVBL
EAGLE RIVER    NOT AVBL
LAND O LAKES   NOT AVBL
RHINELANDER    SNOW      30  28  92 N16G29    30.10R VSB 1/2
PHILLIPS       CLOUDY    29  26  89 N13G23    30.18R
ANTIGO         NOT AVBL
TOMAHAWK       NOT AVBL
MERRILL        NOT AVBL
$$

WIZ013-073-310700-
NORTHEAST WISCONSIN

CITY           SKY/WX    TMP DP  RH WIND       PRES   REMARKS
IRON MOUNTAIN  LGT SNOW  34  31  88 N17G25    30.02R FOG
MARINETTE      CLOUDY    39  30  70 NW12G17   29.99R
$$

WIZ017-030-035>037-045-310700-
CENTRAL WISCONSIN

CITY           SKY/WX    TMP DP  RH WIND       PRES   REMARKS
MEDFORD        NOT AVBL
WAUSAU         CLOUDY    34  26  72 N17G29    30.09R
MOSINEE        CLOUDY    34  28  80 NW17G23   30.11R
MARSHFIELD     CLOUDY    33  25  72 NW22G35   30.14R
WISC RAPIDS    CLOUDY    35  27  72 NW15G30   30.14R
STEVENS POINT  NOT AVBL
WAUPACA        NOT AVBL
SHAWANO        LGT RAIN  39  31  73 NW9G17    30.05R
CLINTONVILLE   CLOUDY    37  32  81 NW14G20   30.05R
$$

WIZ038-039-048-051-310700-
FOX VALLEY

CITY           SKY/WX    TMP DP  RH WIND       PRES   REMARKS
NWS GREEN BAY  CLOUDY    40  32  73 NW14G22   30.03R
APPLETON       CLOUDY    37  30  75 NW16G24   30.04R
OSHKOSH        CLOUDY    41  30  65 NW20G31   30.03S
FOND DU LAC    MOCLDY    41  32  70 NW12      30.04R
$$

WIZ022-050-052-310700-
EAST CENTRAL WISCONSIN

CITY           SKY/WX    TMP DP  RH WIND       PRES   REMARKS
STURGEON BAY   CLOUDY    41  28  60 N17G23    29.99R
MANITOWOC      NOT AVBL
SHEBOYGAN      CLOUDY    43  32  65 NW12G21   30.00S
$$

LMZ563-521-522-541>543-310700-
LAKESHORE

STATION/POSITION TIME  TEMP    WIND        PRES    VSBY  WAVE
                       AIR SEA DIR/SP/G                  HT/PER
                 (UTC) (F)     (DEG/KT/KT) (MB)    (MI)  (FT/S)
SHEBOYGAN LKSHOR 0500   45 50  300/  9/ 11 1016.6F
KEWAUNEE LKSHORE 0500   42     320/ 10/ 16 1014.5S
NORTHPORT PIER   0500   43     310/ 16/ 22 1014.2F
N MID LAKE BUOY  0500   44 51  310/ 17/ 21 1013.8F         3/ 4
CHAMBERS ISLAND  0500   42     310/ 20/ 24 1015.2S
MENOMINEE LKSHOR 0500   40     300/ 12/ 16 1016.1R
$$



USA.gov is the U.S. government's official web portal to all federal, state and local government web resources and services.